"Period start","avg(HW err(1)/warn(2) (#))","avg(Visibility (m))","avg(Weather code (#))","avg(Precip intensity (mm/h))","min(HW err(1)/warn(2) (#))","max(HW err(1)/warn(2) (#))","std(HW err(1)/warn(2) (#))","med(HW err(1)/warn(2) (#))","min(Visibility (m))","max(Visibility (m))","std(Visibility (m))","med(Visibility (m))","min(Weather code (#))","max(Weather code (#))","std(Weather code (#))","med(Weather code (#))","min(Precip intensity (mm/h))","max(Precip intensity (mm/h))","std(Precip intensity (mm/h))","med(Precip intensity (mm/h))"
2016-09-02 00:00:00,0,37134,0,0.00,0,0,0,0,21887,48973,7952,37483,0,0,0,0,0.00,0.00,0.00,0.00
2016-09-02 00:10:00,0,38816,0,0.00,0,0,0,0,20232,50000,9744,38499,0,0,0,0,0.00,0.00,0.00,0.00
2016-09-02 00:20:00,0,41016,0,0.00,0,0,0,0,26751,50000,7045,41160,0,0,0,0,0.00,0.00,0.00,0.00
2016-09-02 00:30:00,0,39717,0,0.00,0,0,0,0,27674,50000,7663,39198,0,0,0,0,0.00,0.00,0.00,0.00
2016-09-02 00:40:00,0,42869,0,0.00,0,0,0,0,24445,50000,8266,45406,0,0,0,0,0.00,0.00,0.00,0.00
2016-09-02 00:50:00,0,30996,0,0.00,0,0,0,0,20099,50000,9196,28514,0,0,0,0,0.00,0.00,0.00,0.00
2016-09-02 01:00:00,0,43514,0,0.00,0,0,0,0,30561,50000,6404,42950,0,0,0,0,0.00,0.00,0.00,0.00
2016-09-02 01:10:00,0,27630,0,0.00,0,0,0,0,17526,39120,5520,27274,0,0,0,0,0.00,0.00,0.00,0.00
2016-09-02 01:20:00,0,36299,0,0.00,0,0,0,0,16355,49254,10151,35446,0,0,0,0,0.00,0.00,0.00,0.00
2016-09-02 01:30:00,0,40158,0,0.00,0,0,0,0,27250,50000,7703,42594,0,0,0,0,0.00,0.00,0.00,0.00
2016-09-02 01:40:00,0,34407,0,0.00,0,0,0,0,19058,49962,9047,34236,0,0,0,0,0.00,0.00,0.00,0.00
2016-09-02 01:50:00,0,42794,0,0.00,0,0,0,0,30689,50000,7668,46086,0,0,0,0,0.00,0.00,0.00,0.00
2016-09-02 02:00:00,0,34660,0,0.00,0,0,0,0,25317,50000,7165,31517,0,0,0,0,0.00,0.00,0.00,0.00
2016-09-02 02:10:00,0,42735,0,0.00,0,0,0,0,27983,50000,7305,43458,0,0,0,0,0.00,0.00,0.00,0.00
2016-09-02 02:20:00,0,39460,0,0.00,0,0,0,0,29518,50000,5653,38603,0,0,0,0,0.00,0.00,0.00,0.00
2016-09-02 02:30:00,0,37405,0,0.00,0,0,0,0,21958,50000,9749,38436,0,0,0,0,0.00,0.00,0.00,0.00
2016-09-02 02:40:00,0,35910,0,0.00,0,0,0,0,26056,50000,6124,35834,0,0,0,0,0.00,0.00,0.00,0.00
2016-09-02 02:50:00,0,40521,0,0.00,0,0,0,0,34046,50000,5709,38208,0,0,0,0,0.00,0.00,0.00,0.00
2016-09-02 03:00:00,0,39343,0,0.00,0,0,0,0,31149,49947,6137,37410,0,0,0,0,0.00,0.00,0.00,0.00
2016-09-02 03:10:00,0,36594,0,0.00,0,0,0,0,27327,43961,5165,36820,0,0,0,0,0.00,0.00,0.00,0.00
2016-09-02 03:20:00,0,38621,0,0.00,0,0,0,0,29553,49413,5688,38404,0,0,0,0,0.00,0.00,0.00,0.00
2016-09-02 03:30:00,0,38770,0,0.00,0,0,0,0,32396,44979,4008,38542,0,0,0,0,0.00,0.00,0.00,0.00
2016-09-02 03:40:00,0,37525,0,0.00,0,0,0,0,25118,50000,8708,38938,0,0,0,0,0.00,0.00,0.00,0.00
2016-09-02 03:50:00,0,43977,0,0.00,0,0,0,0,33687,47895,4076,45036,0,0,0,0,0.00,0.00,0.00,0.00
2016-09-02 04:00:00,0,35661,0,0.00,0,0,0,0,27488,50000,6902,32566,0,0,0,0,0.00,0.00,0.00,0.00
2016-09-02 04:10:00,0,43297,0,0.00,0,0,0,0,31529,50000,6773,46612,0,0,0,0,0.00,0.00,0.00,0.00
2016-09-02 04:20:00,0,47724,0,0.00,0,0,0,0,41047,50000,3480,50000,0,0,0,0,0.00,0.00,0.00,0.00
2016-09-02 04:30:00,0,40891,0,0.00,0,0,0,0,31531,50000,5764,40572,0,0,0,0,0.00,0.00,0.00,0.00
2016-09-02 04:40:00,0,48878,0,0.00,0,0,0,0,43855,50000,1921,50000,0,0,0,0,0.00,0.00,0.00,0.00
2016-09-02 04:50:00,0,43853,0,0.00,0,0,0,0,27262,50000,7520,46443,0,0,0,0,0.00,0.00,0.00,0.00
2016-09-02 05:00:00,0,47799,0,0.00,0,0,0,0,42979,50000,2634,49106,0,0,0,0,0.00,0.00,0.00,0.00
2016-09-02 05:10:00,0,48161,0,0.00,0,0,0,0,45649,50000,1461,48025,0,0,0,0,0.00,0.00,0.00,0.00
2016-09-02 05:20:00,0,47679,0,0.00,0,0,0,0,38530,50000,3648,49793,0,0,0,0,0.00,0.00,0.00,0.00
2016-09-02 05:30:00,0,48670,0,0.00,0,0,0,0,42108,50000,2361,50000,0,0,0,0,0.00,0.00,0.00,0.00
2016-09-02 05:40:00,0,48752,0,0.00,0,0,0,0,42377,50000,2229,49778,0,0,0,0,0.00,0.00,0.00,0.00
2016-09-02 05:50:00,0,49135,0,0.00,0,0,0,0,46680,50000,1150,49894,0,0,0,0,0.00,0.00,0.00,0.00
2016-09-02 06:00:00,0,48766,0,0.00,0,0,0,0,45409,50000,1656,49696,0,0,0,0,0.00,0.00,0.00,0.00
2016-09-02 06:10:00,0,48628,0,0.00,0,0,0,0,44963,50000,1911,50000,0,0,0,0,0.00,0.00,0.00,0.00
2016-09-02 06:20:00,0,49930,0,0.00,0,0,0,0,49298,50000,211,50000,0,0,0,0,0.00,0.00,0.00,0.00
2016-09-02 06:30:00,0,48772,0,0.00,0,0,0,0,46852,50000,1290,49171,0,0,0,0,0.00,0.00,0.00,0.00
2016-09-02 06:40:00,0,48740,0,0.00,0,0,0,0,45409,50000,1709,49761,0,0,0,0,0.00,0.00,0.00,0.00
2016-09-02 06:50:00,0,49802,0,0.00,0,0,0,0,48056,50000,582,50000,0,0,0,0,0.00,0.00,0.00,0.00
2016-09-02 07:00:00,0,48501,0,0.00,0,0,0,0,41945,50000,2396,49876,0,0,0,0,0.00,0.00,0.00,0.00
2016-09-02 07:10:00,0,45904,0,0.00,0,0,0,0,33773,50000,4674,46687,0,0,0,0,0.00,0.00,0.00,0.00
2016-09-02 07:20:00,0,49677,0,0.00,0,0,0,0,47963,50000,620,50000,0,0,0,0,0.00,0.00,0.00,0.00
2016-09-02 07:30:00,0,49744,0,0.00,0,0,0,0,47439,50000,768,50000,0,0,0,0,0.00,0.00,0.00,0.00
2016-09-02 07:40:00,0,48939,0,0.00,0,0,0,0,43511,50000,1987,50000,0,0,0,0,0.00,0.00,0.00,0.00
2016-09-02 07:50:00,0,47751,0,0.00,0,0,0,0,41226,50000,3133,49912,0,0,0,0,0.00,0.00,0.00,0.00
2016-09-02 08:00:00,0,49522,0,0.00,0,0,0,0,46060,50000,1167,50000,0,0,0,0,0.00,0.00,0.00,0.00
2016-09-02 08:10:00,0,49810,0,0.00,0,0,0,0,48097,50000,571,50000,0,0,0,0,0.00,0.00,0.00,0.00
2016-09-02 08:20:00,0,49368,0,0.00,0,0,0,0,47693,50000,905,50000,0,0,0,0,0.00,0.00,0.00,0.00
2016-09-02 08:30:00,0,49993,0,0.00,0,0,0,0,49931,50000,21,50000,0,0,0,0,0.00,0.00,0.00,0.00
2016-09-02 08:40:00,0,48673,0,0.00,0,0,0,0,44794,50000,1838,49734,0,0,0,0,0.00,0.00,0.00,0.00
2016-09-02 08:50:00,0,49342,0,0.00,0,0,0,0,45822,50000,1375,50000,0,0,0,0,0.00,0.00,0.00,0.00
2016-09-02 09:00:00,0,47566,0,0.00,0,0,0,0,39835,50000,3610,50000,0,0,0,0,0.00,0.00,0.00,0.00
2016-09-02 09:10:00,0,49707,0,0.00,0,0,0,0,48929,50000,443,50000,0,0,0,0,0.00,0.00,0.00,0.00
2016-09-02 09:20:00,0,49770,0,0.00,0,0,0,0,47696,50000,691,50000,0,0,0,0,0.00,0.00,0.00,0.00
2016-09-02 09:30:00,0,50000,0,0.00,0,0,0,0,50000,50000,0,50000,0,0,0,0,0.00,0.00,0.00,0.00
2016-09-02 09:40:00,0,50000,0,0.00,0,0,0,0,50000,50000,0,50000,0,0,0,0,0.00,0.00,0.00,0.00
2016-09-02 09:50:00,0,49610,0,0.00,0,0,0,0,47207,50000,867,50000,0,0,0,0,0.00,0.00,0.00,0.00
2016-09-02 10:00:00,0,50000,0,0.00,0,0,0,0,50000,50000,0,50000,0,0,0,0,0.00,0.00,0.00,0.00
2016-09-02 10:10:00,0,49760,0,0.00,0,0,0,0,47598,50000,721,50000,0,0,0,0,0.00,0.00,0.00,0.00
2016-09-02 10:20:00,0,49815,0,0.00,0,0,0,0,49186,50000,299,50000,0,0,0,0,0.00,0.00,0.00,0.00
2016-09-02 10:30:00,0,50000,0,0.00,0,0,0,0,50000,50000,0,50000,0,0,0,0,0.00,0.00,0.00,0.00
2016-09-02 10:40:00,0,49948,0,0.00,0,0,0,0,49479,50000,156,50000,0,0,0,0,0.00,0.00,0.00,0.00
2016-09-02 10:50:00,0,50000,0,0.00,0,0,0,0,50000,50000,0,50000,0,0,0,0,0.00,0.00,0.00,0.00
2016-09-02 11:00:00,0,50000,0,0.00,0,0,0,0,50000,50000,0,50000,0,0,0,0,0.00,0.00,0.00,0.00
2016-09-02 11:10:00,0,49916,0,0.00,0,0,0,0,49155,50000,254,50000,0,0,0,0,0.00,0.00,0.00,0.00
2016-09-02 11:20:00,0,50000,0,0.00,0,0,0,0,50000,50000,0,50000,0,0,0,0,0.00,0.00,0.00,0.00
2016-09-02 11:30:00,0,49650,0,0.00,0,0,0,0,46501,50000,1050,50000,0,0,0,0,0.00,0.00,0.00,0.00
2016-09-02 11:40:00,0,49229,0,0.00,0,0,0,0,45386,50000,1578,50000,0,0,0,0,0.00,0.00,0.00,0.00
2016-09-02 11:50:00,0,50000,0,0.00,0,0,0,0,50000,50000,0,50000,0,0,0,0,0.00,0.00,0.00,0.00
2016-09-02 12:00:00,0,50000,0,0.00,0,0,0,0,50000,50000,0,50000,0,0,0,0,0.00,0.00,0.00,0.00
2016-09-02 12:10:00,0,49715,0,0.00,0,0,0,0,47147,50000,856,50000,0,0,0,0,0.00,0.00,0.00,0.00
2016-09-02 12:20:00,0,49936,0,0.00,0,0,0,0,49355,50000,194,50000,0,0,0,0,0.00,0.00,0.00,0.00
2016-09-02 12:30:00,0,50000,0,0.00,0,0,0,0,50000,50000,0,50000,0,0,0,0,0.00,0.00,0.00,0.00
2016-09-02 12:40:00,0,49795,0,0.00,0,0,0,0,48699,50000,428,50000,0,0,0,0,0.00,0.00,0.00,0.00
2016-09-02 12:50:00,0,50000,0,0.00,0,0,0,0,50000,50000,0,50000,0,0,0,0,0.00,0.00,0.00,0.00
2016-09-02 13:00:00,0,49958,0,0.00,0,0,0,0,49597,50000,120,50000,0,0,0,0,0.00,0.00,0.00,0.00
2016-09-02 13:10:00,0,50000,0,0.00,0,0,0,0,50000,50000,0,50000,0,0,0,0,0.00,0.00,0.00,0.00
2016-09-02 13:20:00,0,50000,0,0.00,0,0,0,0,50000,50000,0,50000,0,0,0,0,0.00,0.00,0.00,0.00
2016-09-02 13:30:00,0,49284,0,0.00,0,0,0,0,44617,50000,1643,50000,0,0,0,0,0.00,0.00,0.00,0.00
2016-09-02 13:40:00,0,49991,0,0.00,0,0,0,0,49908,50000,28,50000,0,0,0,0,0.00,0.00,0.00,0.00
2016-09-02 13:50:00,0,50000,0,0.00,0,0,0,0,50000,50000,0,50000,0,0,0,0,0.00,0.00,0.00,0.00
2016-09-02 14:00:00,0,50000,0,0.00,0,0,0,0,50000,50000,0,50000,0,0,0,0,0.00,0.00,0.00,0.00
2016-09-02 14:10:00,0,50000,0,0.00,0,0,0,0,50000,50000,0,50000,0,0,0,0,0.00,0.00,0.00,0.00
2016-09-02 14:20:00,0,49978,0,0.00,0,0,0,0,49782,50000,65,50000,0,0,0,0,0.00,0.00,0.00,0.00
2016-09-02 14:30:00,0,50000,0,0.00,0,0,0,0,50000,50000,0,50000,0,0,0,0,0.00,0.00,0.00,0.00
2016-09-02 14:40:00,0,50000,0,0.00,0,0,0,0,50000,50000,0,50000,0,0,0,0,0.00,0.00,0.00,0.00
2016-09-02 14:50:00,0,50000,0,0.00,0,0,0,0,50000,50000,0,50000,0,0,0,0,0.00,0.00,0.00,0.00
2016-09-02 15:00:00,0,50000,0,0.00,0,0,0,0,50000,50000,0,50000,0,0,0,0,0.00,0.00,0.00,0.00
2016-09-02 15:10:00,0,49860,0,0.00,0,0,0,0,48599,50000,420,50000,0,0,0,0,0.00,0.00,0.00,0.00
2016-09-02 15:20:00,0,50000,0,0.00,0,0,0,0,50000,50000,0,50000,0,0,0,0,0.00,0.00,0.00,0.00
2016-09-02 15:30:00,0,49745,0,0.00,0,0,0,0,47834,50000,647,50000,0,0,0,0,0.00,0.00,0.00,0.00
2016-09-02 15:40:00,0,50000,0,0.00,0,0,0,0,50000,50000,0,50000,0,0,0,0,0.00,0.00,0.00,0.00
2016-09-02 15:50:00,0,48478,0,0.00,0,0,0,0,41738,50000,2635,50000,0,0,0,0,0.00,0.00,0.00,0.00
2016-09-02 16:00:00,0,50000,0,0.00,0,0,0,0,50000,50000,0,50000,0,0,0,0,0.00,0.00,0.00,0.00
2016-09-02 16:10:00,0,50000,0,0.00,0,0,0,0,50000,50000,0,50000,0,0,0,0,0.00,0.00,0.00,0.00
2016-09-02 16:20:00,0,49505,0,0.00,0,0,0,0,47509,50000,880,50000,0,0,0,0,0.00,0.00,0.00,0.00
2016-09-02 16:30:00,0,49203,0,0.00,0,0,0,0,46109,50000,1365,50000,0,0,0,0,0.00,0.00,0.00,0.00
2016-09-02 16:40:00,0,49877,0,0.00,0,0,0,0,49008,50000,296,50000,0,0,0,0,0.00,0.00,0.00,0.00
2016-09-02 16:50:00,0,49494,0,0.00,0,0,0,0,47204,50000,944,50000,0,0,0,0,0.00,0.00,0.00,0.00
2016-09-02 17:00:00,0,50000,0,0.00,0,0,0,0,50000,50000,0,50000,0,0,0,0,0.00,0.00,0.00,0.00
2016-09-02 17:10:00,0,49816,0,0.00,0,0,0,0,48165,50000,550,50000,0,0,0,0,0.00,0.00,0.00,0.00
2016-09-02 17:20:00,0,49868,0,0.00,0,0,0,0,48685,50000,394,50000,0,0,0,0,0.00,0.00,0.00,0.00
2016-09-02 17:30:00,0,50000,0,0.00,0,0,0,0,50000,50000,0,50000,0,0,0,0,0.00,0.00,0.00,0.00
2016-09-02 17:40:00,0,49716,0,0.00,0,0,0,0,48561,50000,568,50000,0,0,0,0,0.00,0.00,0.00,0.00
2016-09-02 17:50:00,0,49080,0,0.00,0,0,0,0,44878,50000,1669,50000,0,0,0,0,0.00,0.00,0.00,0.00
2016-09-02 18:00:00,0,49010,0,0.00,0,0,0,0,44921,50000,1755,50000,0,0,0,0,0.00,0.00,0.00,0.00
2016-09-02 18:10:00,0,49622,0,0.00,0,0,0,0,46274,50000,1116,50000,0,0,0,0,0.00,0.00,0.00,0.00
2016-09-02 18:20:00,0,48550,0,0.00,0,0,0,0,43383,50000,2227,49686,0,0,0,0,0.00,0.00,0.00,0.00
2016-09-02 18:30:00,0,49954,0,0.00,0,0,0,0,49763,50000,92,50000,0,0,0,0,0.00,0.00,0.00,0.00
2016-09-02 18:40:00,0,46417,0,0.00,0,0,0,0,40937,50000,3494,47268,0,0,0,0,0.00,0.00,0.00,0.00
2016-09-02 18:50:00,0,47526,0,0.00,0,0,0,0,42297,50000,2949,48869,0,0,0,0,0.00,0.00,0.00,0.00
2016-09-02 19:00:00,0,48915,0,0.00,0,0,0,0,45280,50000,1605,50000,0,0,0,0,0.00,0.00,0.00,0.00
2016-09-02 19:10:00,0,49690,0,0.00,0,0,0,0,46903,50000,929,50000,0,0,0,0,0.00,0.00,0.00,0.00
2016-09-02 19:20:00,0,50000,0,0.00,0,0,0,0,50000,50000,0,50000,0,0,0,0,0.00,0.00,0.00,0.00
2016-09-02 19:30:00,0,47693,0,0.00,0,0,0,0,43126,50000,2470,48260,0,0,0,0,0.00,0.00,0.00,0.00
2016-09-02 19:40:00,0,48972,0,0.00,0,0,0,0,45784,50000,1614,50000,0,0,0,0,0.00,0.00,0.00,0.00
2016-09-02 19:50:00,0,49014,0,0.00,0,0,0,0,43895,50000,1897,50000,0,0,0,0,0.00,0.00,0.00,0.00
2016-09-02 20:00:00,0,47507,0,0.00,0,0,0,0,42414,50000,2634,48208,0,0,0,0,0.00,0.00,0.00,0.00
2016-09-02 20:10:00,0,47110,0,0.00,0,0,0,0,41956,50000,2370,46913,0,0,0,0,0.00,0.00,0.00,0.00
2016-09-02 20:20:00,0,48835,0,0.00,0,0,0,0,44870,50000,1810,50000,0,0,0,0,0.00,0.00,0.00,0.00
2016-09-02 20:30:00,0,49664,0,0.00,0,0,0,0,48663,50000,515,50000,0,0,0,0,0.00,0.00,0.00,0.00
2016-09-02 20:40:00,0,47886,0,0.00,0,0,0,0,42105,50000,3189,50000,0,0,0,0,0.00,0.00,0.00,0.00
2016-09-02 20:50:00,0,49636,0,0.00,0,0,0,0,47404,50000,762,50000,0,0,0,0,0.00,0.00,0.00,0.00
2016-09-02 21:00:00,0,48764,0,0.00,0,0,0,0,44021,50000,1976,49924,0,0,0,0,0.00,0.00,0.00,0.00
2016-09-02 21:10:00,0,49451,0,0.00,0,0,0,0,46811,50000,1015,50000,0,0,0,0,0.00,0.00,0.00,0.00
2016-09-02 21:20:00,0,45615,0,0.00,0,0,0,0,37036,50000,4285,46310,0,0,0,0,0.00,0.00,0.00,0.00
2016-09-02 21:30:00,0,45490,0,0.00,0,0,0,0,33422,50000,5743,48524,0,0,0,0,0.00,0.00,0.00,0.00
2016-09-02 21:40:00,0,49547,0,0.00,0,0,0,0,46335,50000,1089,50000,0,0,0,0,0.00,0.00,0.00,0.00
2016-09-02 21:50:00,0,48870,0,0.00,0,0,0,0,46550,50000,1395,49901,0,0,0,0,0.00,0.00,0.00,0.00
2016-09-02 22:00:00,0,48819,0,0.00,0,0,0,0,44332,50000,2159,50000,0,0,0,0,0.00,0.00,0.00,0.00
2016-09-02 22:10:00,0,47492,0,0.00,0,0,0,0,39142,50000,3330,49040,0,0,0,0,0.00,0.00,0.00,0.00
2016-09-02 22:20:00,0,49208,0,0.00,0,0,0,0,45375,50000,1399,50000,0,0,0,0,0.00,0.00,0.00,0.00
2016-09-02 22:30:00,0,47632,0,0.00,0,0,0,0,42360,50000,2775,49204,0,0,0,0,0.00,0.00,0.00,0.00
2016-09-02 22:40:00,0,44440,0,0.00,0,0,0,0,28709,50000,6279,46805,0,0,0,0,0.00,0.00,0.00,0.00
2016-09-02 22:50:00,0,45042,0,0.00,0,0,0,0,32292,50000,5908,48518,0,0,0,0,0.00,0.00,0.00,0.00
2016-09-02 23:00:00,0,44819,0,0.00,0,0,0,0,35649,50000,4764,45876,0,0,0,0,0.00,0.00,0.00,0.00
2016-09-02 23:10:00,0,46379,0,0.00,0,0,0,0,36616,50000,4335,48148,0,0,0,0,0.00,0.00,0.00,0.00
2016-09-02 23:20:00,0,42946,0,0.00,0,0,0,0,30387,50000,6587,44783,0,0,0,0,0.00,0.00,0.00,0.00
2016-09-02 23:30:00,0,41590,0,0.00,0,0,0,0,30421,50000,6435,42654,0,0,0,0,0.00,0.00,0.00,0.00
2016-09-02 23:40:00,0,38365,0,0.00,0,0,0,0,21779,50000,11107,40288,0,0,0,0,0.00,0.00,0.00,0.00
2016-09-02 23:50:00,0,41601,0,0.00,0,0,0,0,32324,50000,6182,41334,0,0,0,0,0.00,0.00,0.00,0.00
